AO-07 1 07530U 74089B 22209.18666095 -.00000047 00000-0 -74091-5 0 9998 2 07530 101.9064 189.1889 0012078 325.8986 45.7136 12.53656048182817 UO-11 1 14781U 84021B 22208.91556846 .00000380 00000-0 51957-4 0 9996 2 14781 97.6192 194.5107 0008276 178.1584 181.9663 14.83733831 46040 LO-19 1 20442U 90005G 22208.80610088 .00000037 00000-0 30336-4 0 9990 2 20442 98.7963 174.2898 0012707 53.7043 306.5312 14.33073768698885 HUBBLE 1 20580U 90037B 22208.87538418 .00001191 00000-0 59285-4 0 9997 2 20580 28.4693 260.9356 0002815 109.1858 56.4570 15.10713627572338 MET-2/21 1 22782U 93055A 22208.85411424 -.00000006 00000-0 -18985-4 0 9999 2 22782 82.5507 342.1703 0021325 232.1706 238.8663 13.83856678459597 AO-27 1 22825U 93061C 22208.81200539 .00000025 00000-0 27540-4 0 9999 2 22825 98.8847 240.6982 0007442 297.6981 62.3445 14.30182858503928 IO-26 1 22826U 93061D 22208.82544880 .00000037 00000-0 31974-4 0 9990 2 22826 98.8791 240.5887 0007877 282.1402 77.8897 14.30529916504180 FO-29 1 24278U 96046B 22208.87998644 -.00000038 00000-0 -39800-5 0 9995 2 24278 98.5150 227.0105 0350361 178.2334 182.0135 13.53117935281320 NOAA-15 1 25338U 98030A 22209.46280148 .00000125 00000-0 70643-4 0 9991 2 25338 98.6419 238.4578 0010564 171.8039 188.3315 14.26155394259119 GO-32 1 25397U 98043D 22208.83751983 -.00000002 00000-0 18863-4 0 9991 2 25397 98.8196 159.4174 0001626 35.6088 324.5199 14.23763414249176 ISS 1 25544U 98067A 22209.28094632 .00006188 00000-0 11570-3 0 9999 2 25544 51.6432 133.0378 0005185 57.5015 84.2534 15.50151296351550 NO-44 1 26931U 01043C 22208.99745608 .00000018 00000-0 38391-4 0 9998 2 26931 67.0525 313.7463 0007083 258.7315 101.2990 14.30720033 87363 SO-50 1 27607U 02058C 22208.63083603 .00000326 00000-0 65192-4 0 9998 2 27607 64.5538 178.9479 0080228 286.7180 72.5129 14.76181965 54308 CO-55 1 27844U 03031E 22208.87219245 .00000121 00000-0 73759-4 0 9993 2 27844 98.6784 215.9478 0009669 352.6137 7.4897 14.22472832989615 CO-57 1 27848U 03031J 22208.84780031 .00000099 00000-0 64733-4 0 9996 2 27848 98.6829 216.4350 0009843 6.8918 353.2393 14.22027321989424 RS-22 1 27939U 03042A 22209.10683579 .00000350 00000-0 70537-4 0 9997 2 27939 98.1967 349.8270 0014132 81.7686 278.5093 14.67408121 7007 NOAA-18 1 28654U 05018A 22209.42534194 .00000134 00000-0 96175-4 0 9996 2 28654 98.9476 279.8259 0013781 211.8735 148.1604 14.12758352885855 CO-58 1 28895U 05043F 22208.83306960 .00000401 00000-0 84760-4 0 9997 2 28895 98.1116 339.6009 0016902 18.9554 341.2274 14.64406006893329 Falconsat-3 1 30776U 07006E 22208.77889893 .00027114 00000-0 37475-3 0 9993 2 30776 35.4317 355.5864 0002753 55.7995 304.2998 15.56163635855869 CO-65 1 32785U 08021C 22208.73320376 .00001032 00000-0 11321-3 0 9998 2 32785 97.6596 178.3135 0014229 99.2306 261.0522 14.89710789772484 AAUSAT2 1 32788U 08021F 22208.92689856 .00001611 00000-0 14193-3 0 9996 2 32788 97.5353 192.8192 0011082 356.9458 3.1695 14.97778943774490 DO-64 1 32789U 08021G 22208.85970158 .00006337 00000-0 34594-3 0 9994 2 32789 97.3370 233.7144 0010637 172.8842 187.2543 15.14623719778048 CO-66 1 32791U 08021J 22209.19829449 .00001562 00000-0 15592-3 0 9993 2 32791 97.6137 184.2140 0014145 58.3081 301.9516 14.92850611773354 RS-30 1 32953U 08025A 22209.18338022 .00000024 00000-0 10000-3 0 9999 2 32953 82.5032 158.6107 0019075 167.6997 192.4555 12.43112028643399 PRISM 1 33493U 09002B 22209.23785243 .00002719 00000-0 22266-3 0 9992 2 33493 98.2260 198.1255 0017773 47.3668 312.9048 15.00115569735107 NOAA-19 1 33591U 09005A 22209.50213447 .00000102 00000-0 80201-4 0 9994 2 33591 99.1455 244.4962 0014885 74.4370 285.8443 14.12592757694240 SRMSAT 1 37841U 11058D 22208.78506671 .00000330 00000-0 36389-4 0 9991 2 37841 19.9737 11.1280 0011902 67.0890 321.0484 14.10763043556947 HRBE 1 37855U 11061F 22209.11644232 .00003440 00000-0 15437-3 0 9999 2 37855 101.7142 349.7374 0151711 300.4001 58.2294 15.12922176587856 RS-40 1 38735U 12041C 22208.83425543 -.00000002 00000-0 -82060-4 0 9996 2 38735 82.4747 240.3127 0015898 284.4490 75.4829 12.42586631453534 ZACUBE-1 1 39417U 13066B 22208.79924306 .00000823 00000-0 10644-3 0 9995 2 39417 97.6386 178.4831 0055995 272.5502 86.9303 14.82472664469106 Delfi-N3xt 1 39428U 13066N 22208.77581791 .00000932 00000-0 14996-3 0 9997 2 39428 97.8143 141.4052 0117740 148.2609 212.5766 14.69305369464455 GOMX-1 1 39430U 13066Q 22209.15699848 .00000871 00000-0 16411-3 0 9992 2 39430 97.8063 114.0295 0147648 276.7635 81.6756 14.60283991462235 LO-74 1 39440U 13066AA 22208.83056939 .00001115 00000-0 15712-3 0 9990 2 39440 97.7281 164.6960 0078745 1.7130 358.4336 14.77129108466245 AO-73 1 39444U 13066AE 22208.85365040 .00000977 00000-0 12191-3 0 9995 2 39444 97.6265 180.9461 0054818 259.9501 99.5526 14.83578809467519 SPROUT 1 39770U 14029E 22209.04829315 .00005292 00000-0 53629-3 0 9995 2 39770 97.9455 326.2529 0007873 324.5298 35.5326 14.91328067443718 DTUSAT-2 1 40030U 14033W 22208.80431884 .00000986 00000-0 10793-3 0 9994 2 40030 97.9373 141.7381 0010125 283.6359 76.3730 14.90097755440165 EO-80 1 40032U 14033Y 22208.77731805 .00001123 00000-0 12213-3 0 9991 2 40032 97.9378 141.7249 0010125 284.8263 75.1832 14.90069801439622 HODOYOSHI-1 1 40299U 14070B 22209.16316434 .00003459 00000-0 13186-3 0 9992 2 40299 97.2415 276.0956 0012009 1.5526 82.3960 15.27283868429272 FIREBIRD FU3 1 40377U 15003B 22208.64453224 .00008342 00000-0 24543-3 0 9992 2 40377 99.0953 82.5475 0097046 248.5822 110.5040 15.30837071414562 FIREBIRD FU4 1 40378U 15003C 22209.12502498 .00008432 00000-0 24724-3 0 9996 2 40378 99.0955 83.3554 0096932 246.5585 112.5437 15.30945591414658 GRIFEX 1 40379U 15003D 22209.04020452 .00004804 00000-0 17038-3 0 9992 2 40379 99.1073 68.7178 0112940 291.2323 67.6876 15.23882588413817 XW-2A 1 40903U 15049E 22209.15164617 .00015685 00000-0 23443-3 0 9995 2 40903 97.1768 267.7793 0007956 337.8220 106.6761 15.55067420385580 XW-2C 1 40906U 15049H 22209.22892682 .00003630 00000-0 17425-3 0 9996 2 40906 97.4928 212.3239 0012980 210.8840 206.8221 15.19440600379117 XW-2D 1 40907U 15049J 22209.16835741 .00004275 00000-0 20052-3 0 9999 2 40907 97.4913 212.2808 0012247 206.2809 212.3438 15.20143145379155 LILACSAT-2 1 40908U 15049K 22209.21310391 .00001953 00000-0 10499-3 0 9999 2 40908 97.5169 209.3966 0013801 231.9417 188.5580 15.16000248378667 XW-2E 1 40909U 15049L 22209.11358326 .00006785 00000-0 28111-3 0 9997 2 40909 97.4640 216.8449 0011809 184.1971 250.2170 15.24173738379601 XW-2F 1 40910U 15049M 22209.12081448 .00006718 00000-0 28268-3 0 9997 2 40910 97.4721 215.9948 0013073 184.5373 248.1235 15.23641163379375 XW-2B 1 40911U 15049N 22209.19773472 .00004256 00000-0 20035-3 0 9999 2 40911 97.4907 212.8982 0012115 206.1139 219.1711 15.20026964379047 DCBB 1 40912U 15049P 22209.17082420 .00007789 00000-0 29745-3 0 9995 2 40912 97.4361 220.3918 0013744 151.5021 273.0948 15.26829528379962 TW-1A 1 40928U 15051D 22209.18019897 .00032767 00000-0 36253-3 0 9990 2 40928 97.0359 231.5546 0005922 209.0885 216.0321 15.62932072384595 IO-86 1 40931U 15052B 22208.56549484 .00000956 00000-0 43669-4 0 9991 2 40931 5.9988 242.9525 0014036 16.7319 343.3389 14.76837909369283 AO-85 1 40967U 15058D 22208.45439787 .00002383 00000-0 26376-3 0 4309 2 40967 64.7774 310.2910 0190141 187.6317 172.1818 14.77587350 66577 ATHENOXAT-1 1 41168U 15077C 22209.18996097 .00010360 00000-0 40825-3 0 9996 2 41168 14.9888 148.2841 0008738 89.0193 308.3425 15.21890498366528 ChubuSat-2 1 41338U 16012B 22208.48719977 .00001130 00000-0 78607-4 0 9992 2 41338 31.0024 128.9655 0013404 190.8043 169.2306 15.01502239353505 ChubuSat-3 1 41339U 16012C 22209.07632717 .00001366 00000-0 96236-4 0 9994 2 41339 31.0111 122.1346 0013059 204.8175 155.1773 15.01573658353598 Horyu-4 1 41340U 16012D 22208.40701876 .00001769 00000-0 12004-3 0 9992 2 41340 31.0048 103.9262 0013451 238.8390 121.0927 15.03525940353748 e-st@r-II 1 41459U 16025D 22209.13993282 .00011411 00000-0 48177-3 0 9997 2 41459 98.1880 17.3329 0144361 131.1189 230.2525 15.14382501343657 AAUSAT4 1 41460U 16025E 22209.02534564 .00016323 00000-0 60307-3 0 9997 2 41460 98.1841 23.7928 0122913 105.9964 255.4720 15.20909720344103 LO-87 1 41557U 16033B 22209.25013747 .00008803 00000-0 25669-3 0 9999 2 41557 97.3899 307.0421 0009728 224.5079 219.7080 15.35553773343642 NuSat2 1 41558U 16033C 22209.16439314 .00008803 00000-0 24179-3 0 9997 2 41558 97.4099 312.8846 0009341 213.0272 242.3006 15.37430204343904 Lapan A3 1 41603U 16040E 22209.09963741 .00001008 00000-0 48651-4 0 9996 2 41603 97.2041 244.3529 0013820 25.1668 61.6671 15.20773647338216 Pratham 1 41783U 16059A 22209.11123757 .00000237 00000-0 54282-4 0 9993 2 41783 97.9109 249.0325 0034401 47.3544 313.0549 14.63391088311579 TY-1 1 41844U 16066D 22209.14143987 .00009183 00000-0 30507-3 0 9991 2 41844 97.3887 220.9816 0014187 137.7253 290.7678 15.31331842317834 CAS-2T 1 41847U 16066G 22208.89232945 .00000634 00000-0 10355-3 0 9999 2 41847 98.5489 273.5144 0364712 88.9588 275.3355 14.38666650300169 EO-88 1 42017U 17008BX 22208.91129977 .00009832 00000-0 28439-3 0 9990 2 42017 97.2671 274.4634 0006558 102.0069 258.1910 15.35792795303285 CAS-4B 1 42759U 17034B 22209.14922375 .00002809 00000-0 17275-3 0 9994 2 42759 43.0172 108.3433 0009058 194.0973 317.7697 15.12156264282514 CAS-4A 1 42761U 17034D 22209.17865897 .00002992 00000-0 18273-3 0 9997 2 42761 43.0175 106.9381 0009247 196.7856 293.3829 15.12243651282529 NIUSat 1 42766U 17036B 22208.90236373 .00004949 00000-0 18921-3 0 9999 2 42766 97.1992 245.2879 0013715 175.8477 184.2878 15.26958517282972 Aalto 1 1 42775U 17036L 22209.09237335 .00003703 00000-0 14602-3 0 9998 2 42775 97.1948 245.3245 0012654 174.2167 185.9220 15.26097893282971 URSA MAIOR 1 42776U 17036M 22208.86122026 .00004323 00000-0 16694-3 0 9995 2 42776 97.1962 245.8712 0012318 173.4216 186.7187 15.26706430282970 Max Valier Sat 1 42778U 17036P 22208.61711213 .00004591 00000-0 17265-3 0 9994 2 42778 97.2025 248.3463 0011025 173.4842 186.6543 15.27575330283030 Pegasus 1 42784U 17036V 22208.68375768 .00006343 00000-0 22303-3 0 9995 2 42784 97.1964 249.3254 0010330 173.5656 186.5719 15.29645157283164 NUDATSat 1 42787U 17036Y 22208.66899370 .00015290 00000-0 45139-3 0 9999 2 42787 97.2000 253.7191 0009370 160.7039 199.4546 15.35016928283260 SUCHAI 1 1 42788U 17036Z 22209.08850617 .00008057 00000-0 26614-3 0 9998 2 42788 97.1969 251.4625 0009889 166.2752 193.8760 15.31593882283406 SKCUBE 1 42789U 17036AA 22208.64853741 .00007204 00000-0 24459-3 0 9999 2 42789 97.1968 250.4553 0009824 169.1108 191.0348 15.30746231283220 VZLUSAT 1 1 42790U 17036AB 22208.87607135 .00011650 00000-0 34660-3 0 9995 2 42790 97.1992 253.8821 0009104 158.3112 201.8519 15.34836767283442 VENTA 1 1 42791U 17036AC 22208.89356238 .00006036 00000-0 20962-3 0 9995 2 42791 97.1971 250.5458 0009581 168.8872 191.2582 15.30077542283242 Robusta 1B 1 42792U 17036AD 22208.85153508 .00007659 00000-0 25529-3 0 9993 2 42792 97.1968 251.2449 0009453 167.6906 192.4568 15.31324862283305 D-SAT 1 42794U 17036AF 22208.96890827 .00001341 00000-0 11759-3 0 9991 2 42794 97.4515 212.2443 0121395 310.0688 48.9935 14.92829615277555 TechnoSat 1 42829U 17042E 22209.06331904 .00000792 00000-0 83288-4 0 9991 2 42829 97.4174 60.8258 0012697 227.4259 132.5890 14.91948622274146 AO-91 1 43017U 17073E 22208.69382543 .00002989 00000-0 22546-3 0 9997 2 43017 97.6709 101.2364 0249240 56.2706 306.1992 14.81657418253071 PICSAT 1 43132U 18004X 22208.66619699 .00007708 00000-0 24902-3 0 9994 2 43132 97.3714 284.8451 0006954 203.3559 156.7368 15.32362283252560 AO-92 1 43137U 18004AC 22208.78276663 .00005465 00000-0 19032-3 0 9998 2 43137 97.3678 283.5903 0006878 207.3826 152.7053 15.30065614252516 TianYi 2 1 43155U 18008A 22209.16821074 .00005224 00000-0 27575-3 0 9991 2 43155 97.3505 266.2647 0016213 9.3830 74.6803 15.15841891249442 Zhou Enlai 1 43156U 18008B 22209.18923683 .00005438 00000-0 28866-3 0 9994 2 43156 97.3547 266.1705 0013683 10.4988 74.7861 15.15652699249371 TianYi 6 1 43158U 18008D 22209.12951211 .00004725 00000-0 25937-3 0 9992 2 43158 97.3492 264.0064 0013571 11.2832 42.2883 15.14531016249260 S-Net D 1 43186U 18014G 22208.70798341 .00000384 00000-0 37336-4 0 9990 2 43186 97.6555 113.6769 0010972 153.9225 206.2552 14.98037964244946 S-Net B 1 43187U 18014H 22208.70816624 .00000372 00000-0 36333-4 0 9999 2 43187 97.6552 113.6267 0010948 153.9084 206.2693 14.98035810244947 S-Net A 1 43188U 18014J 22208.70845975 .00000366 00000-0 35812-4 0 9995 2 43188 97.6556 113.6926 0010947 154.0712 206.1061 14.98035245244943 S-Net C 1 43189U 18014K 22208.70922893 .00000312 00000-0 31307-4 0 9997 2 43189 97.6551 113.6160 0010917 154.1152 206.0619 14.98032003243491 FMN 1 1 43192U 18015A 22209.12475959 .00020584 00000-0 51234-3 0 9998 2 43192 97.5385 355.3934 0009605 241.3134 205.3818 15.40250737249701 Shaonian Xing 1 43199U 18015H 22209.12579808 .00011667 00000-0 34113-3 0 9992 2 43199 97.5179 350.2055 0011626 251.9615 222.3242 15.35374260249683 SurfSat 1 43614U 18070B 22209.20791631 .00027637 00000-0 36613-3 0 9995 2 43614 93.0288 116.0912 0009177 193.2201 166.8825 15.58150367217403 CP-7 DAVE 1 43615U 18070C 22208.73846773 .00022030 00000-0 30976-3 0 9999 2 43615 93.0272 115.7041 0009137 200.5271 159.5627 15.56569671217297 ELFIN-B 1 43616U 18070D 22208.89385363 .00107428 00000-0 68702-3 0 9993 2 43616 93.0166 117.3040 0009890 164.6849 195.4726 15.75959748217708 ELFIN-A 1 43617U 18070E 22209.01071240 .00136525 00000-0 72606-3 0 9993 2 43617 93.0235 118.8216 0010416 156.6055 203.5697 15.80026717217786 CubeBel-1 1 43666U 18083E 22209.11245500 .00006627 00000-0 27700-3 0 9998 2 43666 97.4178 237.3459 0013219 182.3505 255.3235 15.23865039207675 Changshagaoxin 1 43669U 18083H 22209.07118049 .00006288 00000-0 27598-3 0 9991 2 43669 97.4138 233.1586 0009540 178.3539 267.1919 15.22264727207488 Ten-Koh 1 43677U 18084G 22208.80904965 .00000579 00000-0 64089-4 0 9995 2 43677 97.9692 339.2387 0016808 135.0323 225.2259 14.91190442203698 PO-101 1 43678U 18084H 22209.21975159 .00001033 00000-0 10699-3 0 9998 2 43678 97.9756 342.9749 0010660 144.6457 215.5404 14.92237317203932 IRVINE 01 1 43693U 18088D 22208.71151412 .00021100 00000-0 51891-3 0 9997 2 43693 85.0285 283.4996 0009165 320.2551 39.8028 15.40455506206413 QO-100 1 43700U 18090A 22208.71243223 .00000146 00000-0 00000-0 0 9991 2 43700 0.0189 70.2644 0001712 111.2857 46.1252 1.00273782 13434 Reaktor Hello World 1 43743U 18096AA 22208.76784419 .00006982 00000-0 20865-3 0 9994 2 43743 97.3526 288.4849 0013074 273.7282 86.2467 15.34823734204148 MinXSS-2 1 43758U 18099A 22208.87576194 .00002296 00000-0 20102-3 0 9992 2 43758 97.6232 275.8186 0016648 125.7907 234.4866 14.97572449199151 AO-95 1 43770U 18099N 22208.90891863 .00001202 00000-0 11032-3 0 9991 2 43770 97.6185 274.2084 0015111 136.7150 223.5262 14.96604945199063 RANGE-B 1 43772U 18099Q 22209.15318842 .00001508 00000-0 13479-3 0 9998 2 43772 97.6313 276.2177 0015157 121.6292 238.6412 14.97290696199129 RANGE-A 1 43773U 18099R 22208.90943776 .00000943 00000-0 88652-4 0 9999 2 43773 97.6109 273.0262 0014504 124.7018 235.5572 14.96153229199041 MOVE-II 1 43780U 18099Y 22208.89924460 .00001580 00000-0 13846-3 0 9994 2 43780 97.6228 275.4223 0013621 131.5149 228.7245 14.98004879199111 SNUSat 2 1 43782U 18099AA 22208.75106944 .00001170 00000-0 10711-3 0 9993 2 43782 97.6197 274.5274 0013765 121.9653 238.2909 14.96765974199061 SnugLite 1 43784U 18099AC 22208.91646391 .00001484 00000-0 13371-3 0 9991 2 43784 97.6148 274.3241 0015880 130.3781 229.8830 14.96986717199112 ITASat 1 1 43786U 18099AE 22209.16596060 .00000672 00000-0 63683-4 0 9998 2 43786 97.6215 275.3992 0015846 128.6925 231.5717 14.96731581199149 EAGLET 1 1 43790U 18099AJ 22208.65569704 .00001088 00000-0 99640-4 0 9995 2 43790 97.6204 275.4396 0014251 133.4447 226.7963 14.96874716198802 ESEO 1 43792U 18099AL 22208.73996687 .00000928 00000-0 87019-4 0 9999 2 43792 97.6165 274.6807 0014480 129.8554 230.3944 14.96261495198859 CSIM 1 43793U 18099AM 22208.72083457 .00002222 00000-0 18943-3 0 9999 2 43793 97.6224 276.1810 0013769 126.9353 233.3133 14.98676592198911 Astrocast 0.1 1 43798U 18099AS 22209.15313572 .00001634 00000-0 14348-3 0 9997 2 43798 97.6237 276.4460 0013752 109.0077 251.2637 14.97869574199205 JO-97 1 43803U 18099AX 22208.70199638 .00001090 00000-0 98818-4 0 9990 2 43803 97.6176 274.7141 0015599 129.4508 230.8097 14.97262216199097 Suomi 100 1 43804U 18099AY 22208.72255050 .00001676 00000-0 14967-3 0 9996 2 43804 97.6169 274.6476 0016086 129.8917 230.3722 14.97153504199101 Al Farabi 2 1 43805U 18099AZ 22208.96114282 .00002574 00000-0 22355-3 0 9992 2 43805 97.6206 275.4168 0015964 126.7453 233.5236 14.97785561199161 CHOMPTT 1 43855U 18104G 22208.85352853 .00004842 00000-0 17440-3 0 9999 2 43855 85.0340 24.1985 0017363 88.8206 271.5029 15.28136466200895 ISAT 1 43879U 18111D 22208.74015454 .00001702 00000-0 14817-3 0 9991 2 43879 97.6609 113.6219 0012820 178.0362 182.0914 14.98194652195709 UWE-4 1 43880U 18111E 22209.00650641 .00001478 00000-0 12880-3 0 9994 2 43880 97.6638 114.6091 0012072 178.0379 182.0893 14.98341348193776 Sparrow 1 43881U 18111F 22208.68575646 .00002183 00000-0 18712-3 0 9993 2 43881 97.6660 114.5351 0012292 173.0882 187.0513 14.98506982195737 Lume 1 1 43908U 18111AJ 22209.10581504 .00005622 00000-0 18906-3 0 9997 2 43908 97.1866 95.6426 0016294 290.9896 68.9602 15.31074857199618 FO-99 1 43937U 19003F 22208.88502181 .00007554 00000-0 24858-3 0 9997 2 43937 97.1277 240.6786 0020175 15.0666 345.1172 15.31581761196167 MYSat 1 1 44045U 18092F 22208.78747742 .00030468 00000-0 40068-3 0 9999 2 44045 51.6288 230.9000 0006190 273.2060 86.8224 15.58190254194159 AstroCast 0.2 1 44083U 19018F 22209.12047097 .00005722 00000-0 21424-3 0 9995 2 44083 97.3197 267.2219 0009436 352.1425 7.9665 15.27638857184693 AISTechSat 3 1 44103U 19018AB 22209.09511475 .00004800 00000-0 17726-3 0 9996 2 44103 97.3061 267.5476 0011572 0.0075 0.1163 15.28159887184856 AISat 1 1 44104U 19018AC 22208.82880182 .00003817 00000-0 10677-3 0 9996 2 44104 97.3959 292.1317 0051085 350.5750 9.4530 15.35988042185792 Prox-1 1 44339U 19036A 22208.92580850 .00001762 00000-0 35074-3 0 9991 2 44339 24.0006 297.9428 0010603 304.0554 55.8931 14.55260062164349 Oculus-ASR 1 44348U 19036K 22208.86483575 .00033634 -57328-5 28741-3 0 9997 2 44348 28.5004 272.3878 0226570 47.0140 314.9217 15.40743654170777 Armadillo 1 44352U 19036P 22209.19997203 .00244375 13231-4 60036-3 0 9999 2 44352 28.5167 176.1222 0085749 200.9449 158.7638 15.88403377171701 NO-104 1 44354U 19036R 22208.46376572 .00036190 -56658-5 29232-3 0 9999 2 44354 28.5225 260.0809 0216631 63.3838 298.8784 15.43801299170861 Move-IIb 1 44398U 19038N 22209.13613260 .00009839 00000-0 46538-3 0 9994 2 44398 97.6357 178.8690 0019719 352.0068 8.0799 15.19416115169213 SONATE 1 44400U 19038Q 22209.28052578 .00003833 00000-0 20794-3 0 9997 2 44400 97.6442 177.9765 0022758 356.9652 3.1436 15.14965865169113 BeeSat 9 1 44412U 19038AC 22209.14618710 .00004850 00000-0 24490-3 0 9998 2 44412 97.6371 178.7472 0019839 359.4416 0.6791 15.17416625168868 JAISAT-1 1 44419U 19038F 22208.85550361 .00005020 00000-0 25008-3 0 9995 2 44419 97.6374 179.3229 0018766 357.9817 2.1337 15.17889410169186 LightSail-2 1 44420U 19036AC 22208.71867230 .00039888 00000-0 45948-2 0 9999 2 44420 24.0005 226.7309 0016207 70.9022 289.3230 14.84210523163065 Taurus 1 1 44530U 19059C 22209.07687668 .00001954 00000-0 54667-3 0 9993 2 44530 98.5494 307.9856 0013115 4.0434 356.0758 14.47218572151722 Duchifat 3 1 44854U 19089C 22209.23097265 .00002226 00000-0 17572-3 0 9998 2 44854 36.9664 218.5595 0007899 200.4951 257.4487 15.01311674144061 OPS-SAT 1 44878U 19092F 22209.06758769 .00005331 00000-0 24568-3 0 9995 2 44878 97.4800 32.6833 0011946 191.7259 168.3699 15.20640151144366 TO-108 1 44881U 19093C 22209.02846331 .00000451 00000-0 63737-4 0 9999 2 44881 97.8925 287.6549 0016295 56.7355 303.5383 14.81771383140780 FloripaSat 1 1 44885U 19093G 22209.02481813 .00001583 00000-0 19964-3 0 9992 2 44885 97.8966 289.0418 0015674 62.9727 297.3010 14.83275830140866 RS-44 1 44909U 19096E 22209.23636323 .00000003 00000-0 -28709-4 0 9998 2 44909 82.5201 203.1803 0216509 224.1702 134.1936 12.79714101120771 BY70-2 1 45857U 20042B 22209.05830265 .00005571 00000-0 73768-3 0 9993 2 45857 97.9539 285.5198 0009619 353.6029 6.4875 14.80271682111466 UPMSat 2 1 46276U 20061E 22208.77241694 .00001924 00000-0 96656-4 0 9990 2 46276 97.3904 278.6788 0002680 65.2560 294.8953 15.18455568104996 AmicalSat 1 46287U 20061R 22208.82593522 .00002615 00000-0 15160-3 0 9996 2 46287 97.4450 277.6051 0003925 121.4207 238.7408 15.13037789104575 SALSAT 1 46495U 20068K 22208.79784809 .00001407 00000-0 10431-3 0 9994 2 46495 97.7299 150.1170 0017355 137.3423 222.9154 15.04653501100255 BY70-3 1 46839U 20079N 22209.16842481 .00016368 00000-0 36580-3 0 9996 2 46839 97.1967 280.7657 0005894 168.5363 249.7386 15.43566907 96521 CAPE 3 1 47309U 21002A 22208.80234976 .00005184 00000-0 21268-3 0 9991 2 47309 60.6816 212.7086 0028086 6.8303 353.3162 15.25370362 84607 AO-109 1 47311U 21002C 22208.57943306 .00004334 00000-0 17778-3 0 9999 2 47311 60.6829 211.1353 0023868 7.9125 352.2335 15.25826226 84583 MiTEE 1 1 47314U 21002F 22208.69303155 .00010568 00000-0 35390-3 0 9993 2 47314 60.6802 202.9536 0021304 0.1008 0.0083 15.31282549 84754 ExoCube 2 1 47319U 21002L 22209.11406362 .00004126 00000-0 17181-3 0 9991 2 47319 60.6817 210.2764 0025411 9.1154 351.0390 15.25385927 84616 UVSQ-SAT 1 47438U 21006AB 22209.14011859 .00003016 00000-0 15967-3 0 9990 2 47438 97.4349 267.3193 0013204 129.7218 230.5181 15.16107969 83449 YUSAT 1 1 47439U 21006AC 22208.83386866 .00004166 00000-0 21615-3 0 9993 2 47439 97.4357 267.1462 0012943 130.6556 229.5804 15.16613752 83409 SOMP 2b 1 47445U 21006AJ 22209.14724189 .00002618 00000-0 14044-3 0 9997 2 47445 97.4322 266.9578 0012792 133.3843 226.8458 15.15760310 83434 IDEASSat 1 47458U 21006AX 22209.13350260 .00002881 00000-0 15497-3 0 9990 2 47458 97.4410 267.4784 0011992 131.6654 228.5607 15.15599562 83426 CubeSX-Sirius-HSE 1 47951U 21022V 22209.32050277 .00003323 00000-0 22040-3 0 9996 2 47951 97.5274 107.9826 0021469 11.2670 84.6087 15.07756587 74155 CubeSX-HSE 1 47952U 21022W 22209.11457382 .00003202 00000-0 21221-3 0 9998 2 47952 97.5263 107.8025 0021609 11.5307 124.5527 15.07810320 74126 KSU-Cubesat 1 47954U 21022Y 22208.98097154 .00002338 00000-0 15511-3 0 9995 2 47954 97.5275 107.7895 0020894 11.8757 348.2960 15.08063701 73839 GRBAlpha 1 47959U 21022AD 22209.11264225 .00003051 00000-0 20228-3 0 9995 2 47959 97.5264 107.8414 0021529 12.1239 127.1072 15.07835186 72947 Orbicraft-Zorkiy 1 47960U 21022AE 22209.22007066 .00003889 00000-0 25561-3 0 9991 2 47960 97.5287 108.0959 0020898 10.8002 150.6491 15.08002012 73652 STECCO 1 47962U 21022AG 22209.11216369 .00005045 00000-0 31256-3 0 9993 2 47962 97.5259 108.7684 0016009 7.8226 126.9916 15.10115059 73004 DO-111 1 47963U 21022AH 22208.66237589 .00009570 00000-0 52015-3 0 9993 2 47963 97.5292 109.5768 0016530 1.7911 358.3377 15.14587585 73033 MO-110 1 47964U 21022AJ 22208.72415229 .00003892 00000-0 23928-3 0 9992 2 47964 97.5270 108.6685 0018430 3.8660 356.2709 15.10497037 72968 FEES 1 48082U 21022AL 22209.16965061 .00004687 00000-0 28240-3 0 9992 2 48082 97.5277 109.0600 0014458 1.0912 359.0347 15.11181225 72739 RamSat 1 48850U 98067SL 22208.99380068 .00074563 00000-0 45217-3 0 9999 2 48850 51.6359 109.6438 0002559 169.8138 190.2914 15.76858067 63710 TUBIN 1 48900U 21059X 22209.15766497 .00002989 00000-0 16733-3 0 9999 2 48900 97.5583 338.1465 0008986 331.0942 152.7903 15.14190634 60077 IT-SPINS 1 49017U 21013G 22208.70350101 .00003706 00000-0 14964-3 0 9992 2 49017 51.5953 206.9601 0007173 219.9278 140.1174 15.27253362 59931 LEDSAT 1 49069U 21073D 22209.16928810 .00002012 00000-0 13037-3 0 9993 2 49069 97.5228 281.2560 0027771 152.3076 207.9639 15.08952074 51974 CUTE 1 49263U 21088D 22208.73376695 .00002310 00000-0 17394-3 0 9996 2 49263 97.5875 275.8510 0018769 287.3529 72.5643 15.03365526 45475 Binar-1 1 49272U 98067SR 22208.17770813 .00099426 00000-0 57717-3 0 9992 2 49272 51.6312 117.6508 0004576 113.4480 246.7002 15.77718022 45926 Maya-3 1 49273U 98067SS 22208.72820540 .00808409 35784-3 95732-3 0 9995 2 49273 51.6220 105.4115 0006411 218.7953 141.2600 16.07899723 46137 Maya-4 1 49274U 98067ST 22208.98475313 .00567959 16004-3 90151-3 0 9994 2 49274 51.6255 104.9058 0005326 210.1036 149.9670 16.03150077 46161 CUAVA-1 1 49275U 98067SU 22209.20805645 .00222913 00000-0 77343-3 0 9998 2 49275 51.6301 107.7865 0004192 149.4832 294.0676 15.88272091 46092 TeikyoSat 4 1 49396U 21102B 22208.89897459 .00000839 00000-0 70645-4 0 9996 2 49396 97.5245 265.6776 0016519 112.5729 247.7245 15.00697878 39119 Z-Sat 1 49399U 21102E 22209.18550404 .00001571 00000-0 12159-3 0 9997 2 49399 97.5323 266.8486 0023541 91.2628 269.1295 15.02674146 39202 KOSEN 1 1 49402U 21102H 22209.08585657 .00001096 00000-0 83674-4 0 9992 2 49402 97.5284 266.9000 0024253 83.7247 276.6741 15.03773623 39211 HO-113 1 50466U 21131B 22209.21049917 .00000011 00000-0 18233-4 0 9990 2 50466 98.5799 286.4440 0005098 42.5577 317.6004 14.38512383 30776 Tevel 1 50999U 22002R 22209.26364604 .00005123 00000-0 27468-3 0 9995 2 50999 97.4792 275.6843 0009353 279.4253 152.3298 15.15380313 29606 Grizu-263a 1 51025U 22002AT 22208.43990579 .00007119 00000-0 35641-3 0 9999 2 51025 97.4965 275.6649 0010780 285.1796 74.8245 15.17655857 29504 NO-116 1 51031U 22002AZ 22208.69979850 .00004718 00000-0 24526-3 0 9995 2 51031 97.4916 275.6615 0011190 284.9488 75.0505 15.16507344 29532 IRIS-A 1 51044U 22002BN 22208.92774928 .00002417 00000-0 13765-3 0 9991 2 51044 97.4805 275.0789 0007572 287.2777 72.7625 15.13743318 29532 DELFI-PQ 1 51074U 22002CU 22209.11151345 .00005178 00000-0 25687-3 0 9991 2 51074 97.5046 276.8154 0012139 317.2540 42.7749 15.18094871 29627 SO-115 1 51080U 22002DA 22208.90951929 .00003617 00000-0 18569-3 0 9997 2 51080 97.5060 276.5056 0012060 318.8205 41.2117 15.17097999 29587 SO-114 1 51081U 22002DB 22208.44829738 .00004022 00000-0 20608-3 0 9997 2 51081 97.5052 276.0267 0012400 320.2337 39.7987 15.17098197 29510 OreSat0 1 52017U 22026K 22209.23826965 .00003295 00000-0 17598-3 0 9995 2 52017 97.5022 208.5689 0028575 130.7446 229.6274 15.15466650 20364 Planetum 1 1 52738U 22057G 22208.55382754 .00002718 00000-0 16065-3 0 9993 2 52738 97.5160 322.5612 0009210 42.7792 317.4153 15.12287149 9495 Foresail-1 1 52766U 22057AL 22208.76347175 .00001831 00000-0 10564-3 0 9998 2 52766 97.5260 322.9765 0014085 21.0789 339.1020 15.13546890 9533 SNUGLITE 2 1 52899U 22065F 22209.25630257 .00000535 00000-0 12500-3 0 9997 2 52899 98.0236 359.2576 0008969 141.2490 218.9316 14.58370035 3642 CTIM 1 52950U 22074G 22208.76768033 .00010488 00000-0 43585-3 0 9999 2 52950 45.0187 339.4501 0003058 341.0280 19.0194 15.24022024 3882 MTCube 2 1 53106U 22080B 22209.15977029 -.00000003 00000-0 00000-0 0 9996 2 53106 70.1718 72.3102 0008015 228.5203 131.5821 6.42554367 937 AstroBioCubeSat 1 53107U 22080C 22209.16973735 -.00000003 00000-0 00000-0 0 9999 2 53107 70.1587 72.3207 0012392 249.6172 110.3145 6.42111066 838 GREENCUBE 1 53109U 22080E 22208.53648955 -.00000003 00000-0 00000-0 0 9993 2 53109 70.1370 72.3265 0008846 240.4318 119.5470 6.42583560 782 CELESTA 1 53111U 22080G 22209.16019017 -.00000003 00000-0 00000 0 0 9996 2 53111 70.1517 72.3224 0015664 220.2144 139.7964 6.42532870 816 /EX